Total_Precipitation_Accumulation
1.09 1.08 1.20 0.99 0.87 0.94 1.08 1.15 1.21 1.16 1.15 1.18 1.11 1.13 1.10 1.06 0.94 0.87 0.89 0.92 0.98 1.08 1.23 1.38 1.45 1.42 1.38 1.25 1.20 1.17 1.21 1.21 1.40 1.40 1.34 1.29 1.36 1.53 1.69 1.71 1.70 1.12 0.97
0.80 0.74 0.88 0.78 0.80 0.94 1.00 1.10 1.19 1.13 1.08 1.07 1.05 1.03 1.00 0.97 0.96 0.89 0.89 0.98 1.02 1.10 1.18 1.23 1.29 1.25 1.15 1.06 1.01 1.03 1.14 1.24 1.49 1.60 1.64 1.51 1.56 1.70 1.75 1.69 1.74 1.04 0.97
0.52 0.48 0.55 0.65 0.65 0.75 0.79 0.85 0.95 0.93 0.91 0.94 0.96 0.96 1.02 1.03 0.96 0.90 0.92 1.00 1.05 1.07 1.02 1.06 1.09 1.04 0.98 0.97 0.96 1.05 1.14 1.41 1.80 2.01 2.15 1.70 1.26 1.69 1.74 1.56 1.34 0.93 0.95
0.32 0.34 0.37 0.54 0.58 0.63 0.72 0.79 0.88 0.89 0.87 0.89 0.92 0.95 0.94 0.96 0.97 0.98 0.99 1.04 1.02 0.98 0.90 0.93 0.90 0.83 0.81 0.87 0.98 1.10 1.20 1.42 1.76 2.24 2.40 1.52 0.94 1.18 1.26 1.12 1.06 0.92 0.87
0.23 0.31 0.42 0.50 0.54 0.62 0.64 0.71 0.81 0.79 0.82 0.85 0.85 0.89 0.91 0.92 0.97 0.99 1.00 0.98 0.89 0.87 0.84 0.81 0.73 0.69 0.68 0.76 0.94 1.06 1.19 1.43 1.75 1.96 1.64 1.50 1.31 1.16 0.99 0.90 0.92 0.84 0.73
0.19 0.29 0.45 0.49 0.42 0.43 0.50 0.60 0.70 0.74 0.79 0.80 0.76 0.83 0.89 0.89 0.88 0.87 0.84 0.81 0.79 0.78 0.76 0.72 0.64 0.66 0.71 0.81 0.95 1.03 1.18 1.42 1.59 1.26 1.09 1.28 1.08 1.10 1.02 1.01 1.02 0.90 0.74
0.19 0.23 0.36 0.47 0.44 0.45 0.49 0.55 0.62 0.70 0.71 0.69 0.71 0.78 0.87 0.81 0.77 0.77 0.67 0.66 0.73 0.72 0.67 0.62 0.62 0.67 0.73 0.79 0.86 0.98 1.23 1.40 1.30 0.97 1.02 1.26 0.93 0.85 1.00 1.15 1.26 1.09 0.87
0.20 0.18 0.26 0.40 0.45 0.48 0.48 0.52 0.60 0.61 0.64 0.68 0.72 0.78 0.70 0.63 0.62 0.66 0.62 0.64 0.68 0.69 0.62 0.57 0.65 0.68 0.70 0.74 0.78 0.84 1.05 1.15 0.95 0.86 0.95 1.01 0.69 0.77 0.98 1.19 1.36 1.24 1.07
0.31 0.28 0.27 0.36 0.44 0.51 0.56 0.58 0.62 0.61 0.59 0.61 0.67 0.69 0.61 0.55 0.52 0.54 0.65 0.69 0.65 0.62 0.61 0.56 0.57 0.56 0.57 0.62 0.70 0.82 1.01 1.15 1.01 0.98 0.86 0.73 0.61 0.77 1.03 1.18 1.26 1.28 1.21
0.68 0.52 0.36 0.35 0.43 0.45 0.46 0.60 0.68 0.65 0.61 0.59 0.60 0.62 0.60 0.58 0.54 0.57 0.63 0.71 0.71 0.67 0.64 0.58 0.53 0.52 0.58 0.64 0.75 0.94 1.10 1.03 0.97 1.02 0.95 0.71 0.70 0.86 1.04 1.15 1.30 1.35 1.27
1.20 1.02 0.65 0.50 0.51 0.55 0.48 0.53 0.72 0.74 0.65 0.65 0.68 0.71 0.84 0.96 0.85 0.95 0.90 0.97 0.94 0.87 0.83 0.80 0.76 0.73 0.67 0.63 0.80 1.06 1.04 0.98 1.26 1.32 0.95 0.74 0.87 1.12 1.27 1.34 1.42 1.41 1.36
1.38 1.29 0.99 0.83 0.64 0.59 0.54 0.70 0.94 0.90 0.92 0.98 1.06 1.01 1.29 1.49 1.38 1.07 1.22 1.48 1.44 1.39 1.27 1.24 1.24 1.04 0.85 0.82 1.31 1.67 1.30 1.37 1.49 1.18 0.94 0.97 1.28 1.58 1.78 1.67 1.53 1.41 1.29
1.51 1.41 1.19 1.08 0.96 0.81 0.93 0.90 1.05 1.25 1.41 1.26 1.14 1.21 1.57 1.48 1.24 1.24 1.38 1.55 1.74 1.67 1.58 1.71 1.81 1.54 1.47 1.72 2.04 1.96 1.55 1.59 1.54 1.42 1.18 1.30 1.69 2.13 2.34 2.17 1.86 1.59 1.36
1.80 1.67 1.47 1.28 1.15 1.12 1.12 1.09 1.14 1.20 1.39 1.39 1.47 1.45 1.66 1.89 1.81 1.82 1.95 1.92 2.01 2.17 2.45 2.33 2.37 2.17 2.05 1.97 2.11 1.93 1.77 1.79 1.72 1.96 1.99 1.94 2.02 2.31 2.74 2.63 2.24 1.88 1.66
2.30 2.20 1.99 1.65 1.60 1.56 1.61 1.65 1.39 1.43 1.53 1.75 1.90 1.88 1.88 2.11 2.09 2.17 2.24 2.24 2.07 2.19 2.37 2.62 2.50 2.57 2.61 2.38 2.10 1.99 2.09 2.11 2.20 2.20 2.16 2.36 2.28 2.28 2.75 2.88 2.57 2.21 2.01
2.97 2.99 2.77 2.42 2.36 2.27 2.09 2.00 1.91 1.76 1.91 1.98 2.08 2.07 2.07 2.32 2.46 2.41 2.27 2.30 2.18 2.18 2.29 2.51 2.58 2.92 2.91 2.83 2.38 2.19 2.24 2.28 2.28 2.39 2.30 2.54 2.41 2.15 2.40 2.69 2.79 2.64 2.38
3.24 3.42 3.42 3.26 3.23 3.11 2.83 2.52 2.29 2.23 2.18 2.36 2.44 2.36 2.42 2.48 2.63 2.54 2.45 2.27 2.27 2.32 2.49 2.58 2.67 2.94 2.96 2.89 2.72 2.53 2.41 2.17 2.04 2.10 2.11 2.26 2.21 2.11 2.21 2.44 2.73 2.83 2.73
3.51 3.72 3.94 3.90 3.90 3.69 3.44 3.13 2.87 2.65 2.61 2.60 2.56 2.55 2.49 2.62 2.66 2.70 2.50 2.24 2.35 2.33 2.49 2.79 2.90 3.07 3.22 3.23 2.94 2.68 2.53 2.35 2.10 2.04 1.93 1.90 2.11 1.80 2.00 2.27 2.48 2.65 2.95
3.88 4.26 4.62 4.69 4.62 4.26 3.87 3.64 3.53 3.27 3.04 2.85 2.81 2.70 2.61 2.63 2.56 2.67 2.48 2.37 2.44 2.61 2.65 2.49 3.03 3.32 3.37 3.36 2.81 2.69 2.34 2.19 2.04 1.89 1.90 1.75 1.84 1.90 1.93 1.94 2.08 2.25 2.78
4.40 4.99 5.03 4.99 5.26 5.02 4.69 4.43 4.19 3.76 3.39 3.07 2.93 2.82 2.62 2.53 2.44 2.68 2.39 2.36 2.53 2.77 2.83 2.90 3.29 3.37 3.21 3.36 2.85 2.50 2.12 1.78 1.70 1.68 1.55 1.55 1.55 1.53 1.66 1.98 2.27 2.03 2.46
4.26 4.82 5.42 5.50 5.35 5.18 4.87 4.38 3.99 3.58 3.35 3.07 2.84 2.64 2.58 2.54 2.58 2.93 2.60 2.79 2.71 2.75 2.80 2.97 3.21 3.17 2.99 3.34 3.37 2.65 1.88 1.44 1.42 1.31 1.26 1.32 1.29 1.36 1.61 2.09 2.40 2.45 2.21
3.71 4.15 4.58 4.83 4.50 4.17 3.94 3.82 3.65 3.60 3.21 3.06 3.02 3.05 2.78 2.79 2.74 2.72 2.87 2.78 2.81 2.89 2.71 2.80 3.11 2.96 2.60 3.00 3.31 3.24 2.42 1.87 1.44 1.01 1.12 1.18 1.28 1.46 1.50 1.58 2.00 2.46 2.30
3.17 3.32 3.45 3.64 3.68 3.67 3.69 3.77 3.83 3.94 3.62 3.48 3.43 3.34 2.95 2.86 2.80 2.82 2.73 2.63 2.72 2.67 2.59 2.59 2.81 2.91 2.68 2.68 3.08 3.42 2.78 2.11 1.65 1.18 1.07 1.04 1.37 1.69 1.66 1.66 1.81 2.13 2.24
2.48 2.74 3.17 3.36 3.46 3.64 3.88 3.85 3.85 3.76 3.67 3.66 3.77 3.75 3.59 3.31 3.06 2.83 2.66 2.55 2.46 2.37 2.47 2.24 2.51 2.72 2.79 2.46 2.61 2.71 2.56 2.45 2.32 1.68 1.28 1.18 1.47 1.69 1.80 1.78 1.84 2.01 2.14
2.08 2.37 2.88 3.38 3.61 3.78 3.97 4.04 4.25 4.09 3.94 3.81 3.87 3.92 3.70 3.44 3.12 2.79 2.70 2.62 2.52 2.38 2.30 2.26 2.44 2.36 2.40 2.38 2.43 2.46 2.48 2.47 2.33 2.10 1.71 1.55 1.51 1.30 1.34 1.50 1.74 1.98 2.07
2.24 2.49 2.86 3.27 3.58 3.76 3.88 3.92 3.96 3.94 3.90 3.69 3.57 3.32 2.97 2.84 2.72 2.53 2.46 2.41 2.30 2.30 2.30 2.27 2.26 2.22 2.26 2.34 2.32 2.31 2.41 2.43 2.38 2.42 2.09 1.82 1.66 1.40 1.36 1.44 1.58 1.75 1.84